Location: Unspecified
(35.6961°N, 0.0000°E)
Time: 23:04:38
(UTC+00:00)

Vanguard 2 Rocket - Pass Details

Date: 28 May 2019
Orbit: 554 x 3326 km, 32.9° (Epoch: 17 June)

Event Time Altitude Azimuth Distance (km) Brightness Sun altitude
Rises 11:31:30 0° 279° (W) 5,391 10.8 74.7°
Reaches altitude 10° 11:37:15 10° 261° (W) 3,757 10.2 75.1°
Maximum altitude 11:42:16 16° 228° (SW) 2,744 9.7 75.4°
Drops below altitude 10° 11:46:09 10° 192° (SSW) 2,735 9.7 75.6°
Sets 11:49:22 0° 169° (S) 3,331 10.0 75.7°
